FW1895 Weather Reports


Display with metric or nautical units.
time (UTC)temp
F
wind
direction
speed
MPH
gust
MPH
rain 1hr
in
rain 24hr
in
rain mn
in
humidity
%
barometer
mb
20260507024531 74 163 0.0 0.0 0.00 0.00 0.00 37 1014.9
20260507023031 77 360 0.0 0.0 0.00 0.00 0.00 27 1014.8
20260507021531 78 360 0.0 0.0 0.00 0.00 0.00 24 1015.0
20260507020039 80 360 0.0 0.0 0.00 0.00 0.00 22 1014.8
20260507014527 80 360 0.0 0.0 0.00 0.00 0.00 22 1015.0
20260507013044 80 360 0.0 0.0 0.00 0.00 0.00 23 1014.9
20260507011526 81 360 0.0 0.0 0.00 0.00 0.00 22 1014.9
20260507010129 81 171 0.0 0.0 0.00 0.00 0.00 22 1014.9
20260507004524 82 360 0.0 0.0 0.00 0.00 0.00 23 1015.0
20260507003024 81 134 0.0 0.0 0.00 0.00 0.00 23 1014.9
20260507001528 81 193 0.0 0.0 0.00 0.00 0.00 24 1015.2
20260507000022 81 360 0.0 0.0 0.00 0.00 0.00 24 1015.1
20260506234529 81 360 0.0 0.0 0.00 0.00 0.00 24 1015.1
20260506233034 81 360 0.0 0.0 0.00 0.00 0.00 26 1015.3
20260506231527 83 257 0.0 0.0 0.00 0.00 0.00 22 1015.4
20260506230021 82 250 0.0 0.0 0.00 0.00 0.00 22 1015.3
20260506224518 81 240 0.0 0.0 0.00 0.00 0.00 23 1015.6
20260506223014 80 263 0.0 0.0 0.00 0.00 0.00 24 1015.8
20260506221513 80 175 0.0 0.0 0.00 0.00 0.00 26 1015.9
20260506220021 79 201 0.0 0.0 0.00 0.00 0.00 26 1016.4
20260506214510 79 360 0.0 0.0 0.00 0.00 0.00 27 1016.4
20260506213004 78 219 0.0 0.0 0.00 0.00 0.00 29 1016.7
20260506211501 77 360 0.0 0.0 0.00 0.00 0.00 29 1016.9
20260506210059 77 360 0.0 0.0 0.00 0.00 0.00 31 1017.0
20260506204555 76 360 0.0 0.0 0.00 0.00 0.00 31 1017.0
20260506203055 76 119 0.0 0.0 0.00 0.00 0.00 33 1017.2
20260506201552 75 360 0.0 0.0 0.00 0.00 0.00 33 1017.3
20260506200051 74 360 0.0 0.0 0.00 0.00 0.00 35 1017.6
20260506194550 74 360 0.0 0.0 0.00 0.00 0.00 34 1017.8
20260506193048 74 360 0.0 0.0 0.00 0.00 0.00 34 1018.1
20260506191545 72 360 0.0 0.0 0.00 0.00 0.00 36 1018.3
20260506190042 71 360 0.0 0.0 0.00 0.00 0.00 37 1018.4
20260506184539 70 360 0.0 0.0 0.00 0.00 0.00 40 1018.6
20260506183038 70 360 0.0 0.0 0.00 0.00 0.00 40 1018.8
20260506181534 68 360 0.0 0.0 0.00 0.00 0.00 43 1018.9
20260506180031 67 360 0.0 0.0 0.00 0.00 0.00 44 1019.1
20260506174526 66 284 0.0 0.0 0.00 0.00 0.00 46 1019.1
20260506173024 64 148 0.0 0.0 0.00 0.00 0.00 48 1019.1
20260506171519 64 360 0.0 0.0 0.00 0.00 0.00 49 1019.2
20260506170015 63 360 0.0 0.0 0.00 0.00 0.00 50 1019.2
20260506164514 62 297 0.0 0.0 0.00 0.00 0.00 51 1019.3
20260506163010 61 158 0.0 0.0 0.00 0.00 0.00 52 1019.4
20260506161506 60 152 0.0 0.0 0.00 0.00 0.00 54 1019.3
20260506160006 59 360 0.0 0.0 0.00 0.00 0.00 56 1019.4
20260506154557 58 360 0.0 0.0 0.00 0.00 0.00 56 1019.4
20260506153052 57 360 0.0 0.0 0.00 0.00 0.00 58 1019.3
20260506151548 54 360 0.0 0.0 0.00 0.00 0.00 64 1019.3
20260506150044 52 360 0.0 0.0 0.00 0.00 0.00 73 1019.4
20260506144539 49 360 0.0 0.0 0.00 0.00 0.00 79 1019.3
20260506143038 47 360 0.0 0.0 0.00 0.00 0.00 84 1019.1
20260506141534 44 360 0.0 0.0 0.00 0.00 0.00 86 1019.0
20260506140029 43 360 0.0 0.0 0.00 0.00 0.00 87 1018.8
20260506134524 41 69 0.0 0.0 0.00 0.00 0.00 87 1018.7
20260506133024 41 69 0.0 0.0 0.00 0.00 0.00 85 1018.8
20260506131521 41 69 0.0 0.0 0.00 0.00 0.00 84 1018.6
20260506130020 41 69 0.0 0.0 0.00 0.00 0.00 83 1018.5
20260506124515 41 69 0.0 0.0 0.00 0.00 0.00 83 1018.2
20260506123011 41 69 0.0 0.0 0.00 0.00 0.00 83 1018.1
20260506121506 42 69 0.0 0.0 0.00 0.00 0.00 82 1018.1
20260506120004 43 69 0.0 0.0 0.00 0.00 0.00 81 1018.0
20260506114503 43 69 0.0 0.0 0.00 0.00 0.00 80 1017.9
20260506113109 44 69 0.0 0.0 0.00 0.00 0.00 79 1017.8
20260506111559 44 69 0.0 0.0 0.00 0.00 0.00 79 1017.8
20260506110057 44 69 0.0 0.0 0.00 0.00 0.00 79 1017.8
20260506104555 44 69 0.0 0.0 0.00 0.00 0.00 77 1017.7
20260506103055 45 69 0.0 0.0 0.00 0.00 0.00 75 1017.4
20260506101550 47 69 0.0 0.0 0.00 0.00 0.00 76 1017.4
20260506100049 47 69 0.0 0.0 0.00 0.00 0.00 76 1017.5
20260506094549 47 69 0.0 0.0 0.00 0.00 0.00 75 1017.3
20260506093049 48 360 0.0 0.0 0.00 0.00 0.00 75 1017.2
20260506091545 48 360 0.0 0.0 0.00 0.00 0.00 75 1017.2
20260506090046 48 360 0.0 0.0 0.00 0.00 0.00 75 1017.4
20260506084545 48 360 0.0 0.0 0.00 0.00 0.00 75 1017.4
20260506083046 48 360 0.0 0.0 0.00 0.00 0.00 74 1017.4
20260506081549 48 360 0.0 0.0 0.00 0.00 0.00 74 1017.2
20260506073046 49 360 0.0 0.0 0.00 0.00 0.00 73 1017.4
20260506071550 49 360 0.0 0.0 0.00 0.00 0.00 72 1017.5
20260506061540 50 360 0.0 0.0 0.00 0.00 0.00 70 1017.1
20260506044544 52 360 0.0 0.0 0.00 0.00 0.00 66 1016.3
20260506043033 52 360 0.0 0.0 0.00 0.00 0.00 65 1016.1
20260506041535 52 360 0.0 0.0 0.00 0.00 0.00 65 1015.7
20260506040030 53 360 0.0 0.0 0.00 0.00 0.00 64 1015.6
20260506034529 53 360 0.0 0.0 0.00 0.00 0.00 63 1015.3
20260506033028 54 360 0.0 0.0 0.00 0.00 0.00 62 1015.1
20260506031529 54 360 0.0 0.0 0.00 0.00 0.00 61 1014.9
20260506030025 55 360 0.0 0.0 0.00 0.00 0.00 61 1014.7